Regional Weather Roundup
Issued by NWS Green Bay, WI

Home | Current Version | Previous Version | Graphics & Text | Print | Product List | Glossary Off
Versions: 1 2 3 4 5 6 7 8 9 10 11 12 13 14 15 16 17 18 19 20 21 22 23 24 25 26 27 28 29 30 31 32 33 34 35 36 37 38 39 40 41 42 43 44 45 46 47 48 49 50

000
ASUS43 KGRB 200611
RWRGRB

NORTH-CENTRAL AND NORTHEAST WISCONSIN REGIONAL WEATHER ROUNDUP
NATIONAL WEATHER SERVICE GREEN BAY WI
100 AM CDT THU JUL 20 2017

WIZ005-009-010>012-018-019-200700-
NORTH CENTRAL WISCONSIN

CITY           SKY/WX    TMP DP  RH WIND       PRES   REMARKS
IRONWOOD       PTCLDY    57  57 100 CALM      29.94S FOG
MANITOWISH WTR CLOUDY    63  62  97 S3        29.94F
ARBOR VITAE    CLOUDY    67  59  76 CALM      29.94F
EAGLE RIVER    PTCLDY    63  56  76 CALM      29.95F
LAND O LAKES   CLEAR     62  57  82 CALM      29.98F
RHINELANDER    CLOUDY    64  59  83 CALM      29.97F
PHILLIPS       CLOUDY    63  62  94 CALM      29.94F
ANTIGO         CLOUDY    64  59  85 S5        29.96F
TOMAHAWK         N/A     61  59  93 CALM      29.95F
MERRILL        CLOUDY    64  62  94 CALM      29.95F
$$

WIZ013-073-200700-
NORTHEAST WISCONSIN

CITY           SKY/WX    TMP DP  RH WIND       PRES   REMARKS
IRON MOUNTAIN  CLOUDY    65  55  70 CALM      29.94S
MARINETTE      CLOUDY    69  58  67 S6        29.94
OCONTO         CLOUDY    69  55  60 S3        29.94R
$$

WIZ017-030-035>037-045-200700-
CENTRAL WISCONSIN

CITY           SKY/WX    TMP DP  RH WIND       PRES   REMARKS
MEDFORD        CLOUDY    65  62  87 CALM      29.96F
WAUSAU         CLOUDY    68  62  81 SW7       29.94F
MOSINEE        CLOUDY    66  64  94 SW7       29.98R
MARSHFIELD     CLOUDY    67  64  90 SW10      29.96F
WISC RAPIDS    RAIN      68  66  93 W16       29.97F
STEVENS POINT  LGT RAIN  68  66  94 SW10      29.97S
WAUPACA        CLOUDY    73  69  86 CALM      29.96F
SHAWANO        CLOUDY    69  53  54 SE3       29.94F
CLINTONVILLE   CLOUDY    64  55  72 CALM      29.94F
WAUTOMA        LGT RAIN  70  67  90 W9        30.00R
$$

WIZ038-039-048-051-200700-
FOX VALLEY

CITY           SKY/WX    TMP DP  RH WIND       PRES   REMARKS
NWS GREEN BAY  CLOUDY    67  60  78 SW6       29.96R
APPLETON       LGT RAIN  70  63  78 W7        29.96R
OSHKOSH        LGT RAIN  72  66  81 CALM      29.94F
FOND DU LAC    CLOUDY    70  64  81 S3        30.00R
$$

WIZ022-050-052-200700-
EAST CENTRAL WISCONSIN

CITY           SKY/WX    TMP DP  RH WIND       PRES   REMARKS
EPHRAIM        FAIR      64  58  80 S6        29.93S
WASHINGTON ISL FAIR      58  55  90 CALM      29.93F
STURGEON BAY   LGT RAIN  67  58  72 S6        29.96S
MANITOWOC      MOCLDY    70  57  63 S3        29.96R
SHEBOYGAN      CLOUDY    71  65  81 W10       29.97R
$$

LMZ563-521-522-541>543-200700-
LAKESHORE

STATION/POSITION TIME  TEMP    WIND        PRES    VSBY  WAVE
                       AIR SEA DIR/SP/G                  HT/PER
                 (UTC) (F)     (DEG/KT/KT) (MB)    (MI)  (FT/S)
SHEBOYGAN LKSHOR 0600   72     280/  8/ 10 1014.3R
KEWAUNEE LKSHORE 0548   69     200/  3/  4 1013.6R
NORTHPORT PIER   0540   67     170/  5/  7 1013.5F
N MID LAKE BUOY  0550   67 65  150/  4/  6 1014.4F         0
S GREEN BAY BUOY 0530   71 71  170/  8/ 10 1013.9R
SISTER BAY LKSHO 0602   67     130/  6/  8   N/A
CHAMBERS ISLAND  0540   66     170/  2/  4 1013.2S
MENOMINEE LKSHOR 0548   71     160/  7/  9 1013.3F
$$



USA.gov is the U.S. government's official web portal to all federal, state and local government web resources and services.